This demonstration page uses our WeatherBlox Daily Observations layout. Learn more.

Hourly Observations for June 21, 2017

Temp ( °F °C ) Dew Point ( °F °C ) Humidity (%) Winds ( mph kmh ) Pressure ( in mb ) Visibility ( mi km ) Precip ( " mm )
12:54 am 00:54 Clear 77 25 60 15.6 56 56 ESE 7 11 29.82 1010 10 16.0934 0 0
1:54 am 01:54 Clear 72 22.2 63 17.2 73 73 S 7 11 29.81 1010 10 16.0934 0 0
2:54 am 02:54 Clear 72 22.2 64 17.8 76 76 SSE 6 9 29.8 1009 10 16.0934 0 0
3:54 am 03:54 Clear 72 22.2 64 17.8 76 76 SSE 3 6 29.79 1009 10 16.0934 0 0
4:54 am 04:54 Clear 71 21.7 64 17.8 79 79 S 7 11 29.79 1009 10 16.0934 0 0
5:54 am 05:54 Clear 76 24.4 62 16.7 62 62 SSW 12 19 29.77 1008 10 16.0934 0 0
6:54 am 06:54 Sunny 76 24.4 62 16.7 62 62 SSW 13 20 29.76 1008 10 16.0934 0 0
7:54 am 07:54 Sunny 78 25.6 62 16.7 58 58 S 14 22 29.75 1007 10 16.0934 0 0
8:54 am 08:54 Sunny 82 27.8 64 17.8 55 55 SSW 13 20 29.75 1007 10 16.0934 0 0
9:54 am 09:54 Sunny 84 28.9 65 18.3 53 53 SSW 14 22 29.75 1007 10 16.0934 0 0
10:54 am 10:54 Mostly Sunny 87 30.6 66 18.9 50 50 SSW 7 11 29.77 1008 10 16.0934 0 0
11:54 am 11:54 Sunny 89 31.7 69 20.6 52 52 S 13 20 29.75 1008 10 16.0934 0 0
12:54 pm 12:54 Sunny 93 33.9 67 19.4 42 42 SW 14 22 29.73 1007 10 16.0934 0 0
1:54 pm 13:54 Sunny 96 35.6 68 20 40 40 SSW 20 31 29.71 1006 10 16.0934 0 0
2:54 pm 14:54 Sunny 96 35.6 69 20.6 41 41 S 16 26 29.67 1005 10 16.0934 0 0
3:54 pm 15:54 Sunny 96 35.6 67 19.4 39 39 SSW 18 30 29.65 1004 10 16.0934 0 0
4:54 pm 16:54 Sunny 96 35.6 66 18.9 37 37 S 17 28 29.64 1004 10 16.0934 0 0
5:54 pm 17:54 Sunny 95 35 65 18.3 37 37 S 18 30 29.63 1003 10 16.0934 0 0
6:54 pm 18:54 Sunny 93 33.9 65 18.3 40 40 S 18 30 29.63 1003 10 16.0934 0 0
7:54 pm 19:54 Sunny 89 31.7 63 17.2 42 42 S 12 19 29.63 1004 10 16.0934 0 0
8:54 pm 20:54 Sunny 86 30 61 16.1 43 43 S 16 26 29.62 1003 10 16.0934 0 0
9:54 pm 21:54 Clear 84 28.9 59 15 43 43 S 17 28 29.63 1003 10 16.0934 0 0
10:54 pm 22:54 Clear 83 28.3 59 15 44 44 S 17 28 29.66 1004 10 16.0934 0 0
11:54 pm 23:54 Clear 83 28.3 59 15 44 44 S 17 28 29.67 1005 10 16.0934 0 0

Powered by AerisWeather